CEB228 RPVP-RPVM

Flight info

Callsign CEB228
Flight time 0h 57m
Altitude 33000
Route N0450F330 DCT SAIRA W291 KALAH Z151 TADAG DCT
Aircraft A321/M-SDE3FGIRWY/LB1D1

Departure

Time 2026-04-29 05:07
Airport Puerto Princesa International Airport / PAF Antonio Bautista Air Base (RPVP)

Arrival

Time 2026-04-29 06:04
Airport Mactan Cebu International Airport (RPVM)
Time Latitude Longitude Altitude Speed Heading
2026-04-29 04:27 9.74507 118.74997 82 ft 0 kts
2026-04-29 04:55 9.74495 118.74997 86 ft 2 kts
2026-04-29 04:55 9.74478 118.74996 86 ft 2 kts
2026-04-29 04:56 9.74462 118.74995 86 ft 2 kts
2026-04-29 04:56 9.74446 118.74996 85 ft 2 kts 343°
2026-04-29 04:56 9.74431 118.75003 86 ft 2 kts 324°
2026-04-29 04:56 9.74419 118.75013 85 ft 2 kts 295°
2026-04-29 04:57 9.74414 118.75029 84 ft 2 kts 263°
2026-04-29 04:57 9.74417 118.75045 84 ft 2 kts 266°
2026-04-29 04:57 9.74417 118.75048 83 ft 0 kts 268°
2026-04-29 05:02 9.74417 118.75038 84 ft 6 kts 269°
2026-04-29 05:03 9.74419 118.74950 82 ft 16 kts 272°
2026-04-29 05:03 9.74423 118.74841 81 ft 15 kts 272°
2026-04-29 05:03 9.74423 118.74737 81 ft 14 kts 251°
2026-04-29 05:03 9.74355 118.74706 84 ft 9 kts 183°
2026-04-29 05:04 9.74294 118.74703 80 ft 8 kts 182°
2026-04-29 05:04 9.74267 118.74731 83 ft 5 kts 101°
2026-04-29 05:04 9.74263 118.74756 80 ft 3 kts 94°
2026-04-29 05:04 9.74263 118.74763 80 ft 0 kts 91°
2026-04-29 05:05 9.74263 118.74773 80 ft 7 kts 91°
2026-04-29 05:06 9.74259 118.74980 81 ft 61 kts 92°
2026-04-29 05:06 9.74225 118.75629 82 ft 120 kts 92°
2026-04-29 05:06 9.74181 118.76639 83 ft 164 kts 93°
2026-04-29 05:06 9.74119 118.77850 434 ft 172 kts 94°
2026-04-29 05:07 9.74048 118.79111 865 ft 183 kts 92°
2026-04-29 05:07 9.73999 118.80425 1314 ft 189 kts 93°
2026-04-29 05:07 9.73941 118.81777 1766 ft 194 kts 93°
2026-04-29 05:07 9.73876 118.83148 2268 ft 195 kts 93°
2026-04-29 05:08 9.73812 118.84521 2770 ft 195 kts 93°
2026-04-29 05:08 9.73749 118.85908 3260 ft 198 kts 93°
2026-04-29 05:08 9.73684 118.87334 3782 ft 212 kts 93°
2026-04-29 05:08 9.73612 118.88911 4303 ft 237 kts 93°
2026-04-29 05:09 9.73534 118.90644 4785 ft 253 kts 93°
2026-04-29 05:09 9.73453 118.92479 5297 ft 268 kts 93°
2026-04-29 05:09 9.73372 118.94389 5810 ft 274 kts 93°
2026-04-29 05:09 9.73291 118.96332 6307 ft 277 kts 93°
2026-04-29 05:10 9.73210 118.98290 6810 ft 279 kts 93°
2026-04-29 05:10 9.73127 119.00264 7313 ft 281 kts 93°
2026-04-29 05:10 9.73041 119.02251 7816 ft 283 kts 93°
2026-04-29 05:10 9.72955 119.04254 8318 ft 285 kts 93°
2026-04-29 05:11 9.72870 119.06270 8821 ft 287 kts 93°
2026-04-29 05:11 9.72833 119.08303 9326 ft 290 kts 90°
2026-04-29 05:11 9.72874 119.10353 9827 ft 292 kts 88°
2026-04-29 05:11 9.72950 119.12416 10330 ft 295 kts 88°
2026-04-29 05:12 9.73036 119.14532 10850 ft 306 kts 88°
2026-04-29 05:12 9.73122 119.16722 11347 ft 317 kts 88°
2026-04-29 05:12 9.73203 119.18992 11854 ft 327 kts 88°
2026-04-29 05:12 9.73279 119.21331 12360 ft 337 kts 88°
2026-04-29 05:13 9.73352 119.23739 12865 ft 346 kts 89°
2026-04-29 05:13 9.73425 119.26208 13370 ft 355 kts 89°
2026-04-29 05:13 9.73498 119.28736 13875 ft 363 kts 89°
2026-04-29 05:13 9.73570 119.31318 14379 ft 370 kts 89°
2026-04-29 05:14 9.73644 119.33952 14881 ft 377 kts 89°
2026-04-29 05:14 9.73718 119.36633 15387 ft 384 kts 89°
2026-04-29 05:14 9.73792 119.39358 15890 ft 389 kts 89°
2026-04-29 05:14 9.73869 119.42118 16395 ft 394 kts 89°
2026-04-29 05:15 9.73941 119.44949 16905 ft 399 kts 89°
2026-04-29 05:15 9.73965 119.47771 17421 ft 402 kts 90°
2026-04-29 05:15 9.73956 119.50617 17908 ft 406 kts 90°
2026-04-29 05:15 9.73931 119.53487 18410 ft 409 kts 91°
2026-04-29 05:16 9.73904 119.56374 18912 ft 411 kts 91°
2026-04-29 05:16 9.73879 119.59283 19414 ft 414 kts 91°
2026-04-29 05:16 9.73861 119.62204 19915 ft 416 kts 90°
2026-04-29 05:16 9.73850 119.65137 20415 ft 417 kts 90°
2026-04-29 05:17 9.73843 119.68083 20916 ft 419 kts 90°
2026-04-29 05:17 9.73839 119.71040 21417 ft 420 kts 90°
2026-04-29 05:17 9.73838 119.74004 21917 ft 421 kts 90°
2026-04-29 05:17 9.73838 119.76975 22419 ft 422 kts 90°
2026-04-29 05:18 9.73833 119.79949 22918 ft 422 kts 90°
2026-04-29 05:18 9.73823 119.82927 23418 ft 423 kts 90°
2026-04-29 05:18 9.73810 119.85908 23916 ft 423 kts 90°
2026-04-29 05:18 9.73796 119.88886 24417 ft 423 kts 90°
2026-04-29 05:19 9.73783 119.91866 24917 ft 422 kts 90°
2026-04-29 05:19 9.73772 119.94838 25417 ft 421 kts 90°
2026-04-29 05:19 9.73762 119.97803 25918 ft 420 kts 90°
2026-04-29 05:19 9.73753 120.00762 26410 ft 419 kts 90°
2026-04-29 05:20 9.73744 120.03712 26917 ft 418 kts 90°
2026-04-29 05:20 9.73734 120.06652 27418 ft 416 kts 90°
2026-04-29 05:20 9.73724 120.09572 27925 ft 414 kts 90°
2026-04-29 05:20 9.73713 120.12477 28416 ft 411 kts 90°
2026-04-29 05:21 9.73701 120.15366 28916 ft 408 kts 90°
2026-04-29 05:21 9.73690 120.18229 29414 ft 405 kts 90°
2026-04-29 05:21 9.73678 120.21071 29913 ft 401 kts 90°
2026-04-29 05:21 9.73666 120.23881 30411 ft 397 kts 90°
2026-04-29 05:22 9.73655 120.26665 30910 ft 392 kts 90°
2026-04-29 05:22 9.73646 120.29413 31406 ft 388 kts 90°
2026-04-29 05:22 9.73636 120.32160 31910 ft 382 kts 90°
2026-04-29 05:22 9.73624 120.34818 32196 ft 383 kts 90°
2026-04-29 05:23 9.73610 120.37553 32450 ft 384 kts 90°
2026-04-29 05:23 9.73597 120.40259 32697 ft 384 kts 90°
2026-04-29 05:23 9.73582 120.42970 32927 ft 386 kts 90°
2026-04-29 05:24 9.73547 120.48497 33011 ft 399 kts 90°
2026-04-29 05:24 9.73518 120.54235 33011 ft 415 kts 90°
2026-04-29 05:25 9.73489 120.60201 33010 ft 431 kts 90°
2026-04-29 05:25 9.73511 120.66384 33010 ft 447 kts 86°
2026-04-29 05:26 9.74400 120.72719 33009 ft 461 kts 81°
2026-04-29 05:26 9.75390 120.79191 33009 ft 466 kts 81°
2026-04-29 05:27 9.76368 120.85688 33009 ft 466 kts 81°
2026-04-29 05:27 9.77842 120.95430 33010 ft 466 kts 81°
2026-04-29 05:28 9.78676 121.00872 33009 ft 466 kts 81°
2026-04-29 05:28 9.79660 121.07369 33005 ft 466 kts 81°
2026-04-29 05:29 9.80643 121.13861 33003 ft 466 kts 81°
2026-04-29 05:29 9.81625 121.20352 33001 ft 466 kts 82°
2026-04-29 05:30 9.82598 121.26844 32999 ft 466 kts 81°
2026-04-29 05:30 9.83579 121.33333 32998 ft 466 kts 81°
2026-04-29 05:31 9.84555 121.39821 32999 ft 466 kts 82°
2026-04-29 05:31 9.85528 121.46315 32997 ft 466 kts 82°
2026-04-29 05:32 9.86507 121.52804 32998 ft 466 kts 81°
2026-04-29 05:32 9.87486 121.59294 32997 ft 466 kts 82°
2026-04-29 05:33 9.88459 121.65786 32996 ft 466 kts 82°
2026-04-29 05:33 9.89425 121.72279 32996 ft 466 kts 82°
2026-04-29 05:34 9.90395 121.78766 32998 ft 466 kts 81°
2026-04-29 05:34 9.91366 121.85257 32996 ft 466 kts 82°
2026-04-29 05:35 9.92336 121.91797 32996 ft 466 kts 82°
2026-04-29 05:35 9.93303 121.98286 32996 ft 466 kts 81°
2026-04-29 05:36 9.93788 122.01515 32722 ft 461 kts 82°
2026-04-29 05:36 9.94265 122.04711 32222 ft 456 kts 82°
2026-04-29 05:36 9.94732 122.07877 31722 ft 452 kts 82°
2026-04-29 05:36 9.95194 122.11013 31221 ft 447 kts 82°
2026-04-29 05:37 9.95655 122.14121 30721 ft 443 kts 82°
2026-04-29 05:37 9.96114 122.17194 30220 ft 440 kts 82°
2026-04-29 05:37 9.96568 122.20252 29720 ft 436 kts 82°
2026-04-29 05:37 9.97012 122.23279 29220 ft 432 kts 82°
2026-04-29 05:38 9.97452 122.26277 28720 ft 428 kts 82°
2026-04-29 05:38 9.97887 122.29254 28219 ft 425 kts 82°
2026-04-29 05:38 9.98319 122.32203 27717 ft 421 kts 82°
2026-04-29 05:38 9.98750 122.35130 27217 ft 418 kts 82°
2026-04-29 05:39 9.99206 122.38029 26718 ft 414 kts 78°
2026-04-29 05:39 9.99968 122.40835 26217 ft 411 kts 70°
2026-04-29 05:39 10.01070 122.43495 25717 ft 407 kts 66°
2026-04-29 05:39 10.02226 122.46107 25218 ft 404 kts 66°
2026-04-29 05:40 10.03363 122.48701 24716 ft 401 kts 66°
2026-04-29 05:40 10.04483 122.51283 24212 ft 398 kts 66°
2026-04-29 05:40 10.05588 122.53842 23722 ft 395 kts 66°
2026-04-29 05:40 10.06686 122.56387 23212 ft 392 kts 66°
2026-04-29 05:41 10.07775 122.58909 22714 ft 389 kts 66°
2026-04-29 05:41 10.08861 122.61416 22206 ft 386 kts 66°
2026-04-29 05:41 10.09940 122.63900 21714 ft 384 kts 66°
2026-04-29 05:41 10.11015 122.66366 21213 ft 381 kts 66°
2026-04-29 05:42 10.12087 122.68820 20713 ft 379 kts 66°
2026-04-29 05:42 10.13154 122.71260 20212 ft 377 kts 66°
2026-04-29 05:42 10.14206 122.73676 19862 ft 371 kts 66°
2026-04-29 05:42 10.15237 122.76045 19614 ft 362 kts 66°
2026-04-29 05:43 10.16242 122.78353 19358 ft 354 kts 66°
2026-04-29 05:43 10.17226 122.80614 19107 ft 346 kts 66°
2026-04-29 05:43 10.18185 122.82824 18856 ft 339 kts 66°
2026-04-29 05:43 10.19135 122.85018 18601 ft 331 kts 66°
2026-04-29 05:44 10.20053 122.87142 18352 ft 325 kts 66°
2026-04-29 05:44 10.20944 122.89198 18105 ft 319 kts 66°
2026-04-29 05:44 10.21839 122.91269 17850 ft 314 kts 66°
2026-04-29 05:44 10.22711 122.93277 17599 ft 308 kts 66°
2026-04-29 05:45 10.23570 122.95250 17348 ft 303 kts 66°
2026-04-29 05:45 10.24413 122.97190 17101 ft 298 kts 66°
2026-04-29 05:45 10.25187 122.99141 16845 ft 299 kts 72°
2026-04-29 05:45 10.25716 123.01183 16589 ft 299 kts 80°
2026-04-29 05:46 10.25974 123.03275 16346 ft 298 kts 86°
2026-04-29 05:46 10.26132 123.05375 16103 ft 298 kts 86°
2026-04-29 05:46 10.26299 123.07463 15846 ft 296 kts 85°
2026-04-29 05:46 10.26467 123.09540 15592 ft 294 kts 85°
2026-04-29 05:47 10.26634 123.11592 15344 ft 289 kts 86°
2026-04-29 05:47 10.26670 123.13617 15088 ft 285 kts 94°
2026-04-29 05:47 10.26431 123.15596 14769 ft 283 kts 102°
2026-04-29 05:47 10.25929 123.17544 14269 ft 288 kts 108°
2026-04-29 05:48 10.25334 123.19507 13769 ft 293 kts 107°
2026-04-29 05:48 10.24741 123.21500 13267 ft 297 kts 107°
2026-04-29 05:48 10.24140 123.23525 12761 ft 301 kts 107°
2026-04-29 05:48 10.23533 123.25573 12264 ft 305 kts 107°
2026-04-29 05:49 10.22914 123.27650 11758 ft 309 kts 107°
2026-04-29 05:49 10.22288 123.29746 11255 ft 312 kts 107°
2026-04-29 05:49 10.21657 123.31856 10819 ft 311 kts 107°
2026-04-29 05:49 10.21032 123.33933 10562 ft 305 kts 107°
2026-04-29 05:50 10.20419 123.35967 10316 ft 298 kts 107°
2026-04-29 05:50 10.19821 123.37962 10071 ft 292 kts 107°
2026-04-29 05:50 10.19240 123.39916 9812 ft 286 kts 107°
2026-04-29 05:50 10.18669 123.41828 9560 ft 280 kts 107°
2026-04-29 05:51 10.18109 123.43701 9311 ft 275 kts 107°
2026-04-29 05:51 10.17558 123.45538 9060 ft 269 kts 107°
2026-04-29 05:51 10.17015 123.47343 8830 ft 259 kts 107°
2026-04-29 05:51 10.16500 123.49064 8563 ft 250 kts 107°
2026-04-29 05:52 10.16003 123.50729 8337 ft 243 kts 107°
2026-04-29 05:52 10.15592 123.52106 8115 ft 237 kts 107°
2026-04-29 05:52 10.15120 123.53691 7862 ft 231 kts 107°
2026-04-29 05:52 10.14663 123.55214 7643 ft 220 kts 107°
2026-04-29 05:53 10.14230 123.56662 7389 ft 211 kts 107°
2026-04-29 05:53 10.13814 123.58056 7132 ft 203 kts 108°
2026-04-29 05:53 10.13408 123.59406 6880 ft 197 kts 108°
2026-04-29 05:53 10.13014 123.60711 6626 ft 190 kts 108°
2026-04-29 05:54 10.12631 123.61984 6380 ft 187 kts 108°
2026-04-29 05:54 10.12257 123.63232 6129 ft 183 kts 107°
2026-04-29 05:54 10.11892 123.64455 5907 ft 177 kts 108°
2026-04-29 05:54 10.11540 123.65631 5644 ft 172 kts 108°
2026-04-29 05:55 10.11200 123.66769 5393 ft 166 kts 108°
2026-04-29 05:55 10.10865 123.67883 5154 ft 165 kts 108°
2026-04-29 05:55 10.10534 123.68990 4892 ft 163 kts 108°
2026-04-29 05:55 10.10204 123.70093 4651 ft 163 kts 108°
2026-04-29 05:56 10.09875 123.71192 4401 ft 163 kts 108°
2026-04-29 05:56 10.09547 123.72289 4150 ft 162 kts 107°
2026-04-29 05:56 10.09345 123.73410 3899 ft 162 kts 95°
2026-04-29 05:56 10.09366 123.74550 3641 ft 162 kts 84°
2026-04-29 05:57 10.09604 123.75660 3398 ft 161 kts 72°
2026-04-29 05:57 10.10041 123.76704 3152 ft 161 kts 62°
2026-04-29 05:57 10.10667 123.77638 3102 ft 160 kts 50°
2026-04-29 05:57 10.11449 123.78447 3100 ft 161 kts 43°
2026-04-29 05:58 10.12274 123.79217 3097 ft 161 kts 42°
2026-04-29 05:58 10.13094 123.79992 3097 ft 161 kts 44°
2026-04-29 05:58 10.13899 123.80782 3095 ft 161 kts 44°
2026-04-29 05:58 10.14698 123.81578 3095 ft 161 kts 44°
2026-04-29 05:59 10.15497 123.82376 3097 ft 161 kts 44°
2026-04-29 05:59 10.16299 123.83172 3097 ft 161 kts 44°
2026-04-29 05:59 10.17099 123.83969 3096 ft 161 kts 44°
2026-04-29 05:59 10.17899 123.84766 3098 ft 161 kts 44°
2026-04-29 06:00 10.18695 123.85569 3095 ft 161 kts 45°
2026-04-29 06:00 10.19502 123.86384 2993 ft 161 kts 45°
2026-04-29 06:00 10.20029 123.86914 2884 ft 161 kts 44°
2026-04-29 06:00 10.20826 123.87709 2690 ft 160 kts 44°
2026-04-29 06:01 10.21617 123.88499 2483 ft 159 kts 44°
2026-04-29 06:01 10.22404 123.89290 2274 ft 159 kts 45°
2026-04-29 06:01 10.23184 123.90082 2066 ft 158 kts 45°
2026-04-29 06:01 10.23966 123.90868 1855 ft 158 kts 44°
2026-04-29 06:02 10.24748 123.91651 1648 ft 157 kts 44°
2026-04-29 06:02 10.25530 123.92429 1437 ft 157 kts 44°
2026-04-29 06:02 10.26309 123.93203 1228 ft 157 kts 44°
2026-04-29 06:02 10.27085 123.93980 1028 ft 156 kts 45°
2026-04-29 06:03 10.27854 123.94758 809 ft 156 kts 45°
2026-04-29 06:03 10.28619 123.95531 616 ft 155 kts 45°
2026-04-29 06:03 10.29388 123.96298 409 ft 155 kts 44°
2026-04-29 06:03 10.30152 123.97068 221 ft 154 kts 45°
2026-04-29 06:04 10.30924 123.97846 38 ft 148 kts 44°
2026-04-29 06:04 10.31366 123.98280 36 ft 31 kts 44°
2026-04-29 06:04 10.31406 123.98303 37 ft 0 kts 330°
2026-04-29 06:04 10.31480 123.98228 37 ft 19 kts 313°
2026-04-29 06:05 10.31550 123.98152 37 ft 4 kts 313°
2026-04-29 06:05 10.31562 123.98135 37 ft 2 kts 291°
2026-04-29 06:05 10.31567 123.98122 37 ft 2 kts 291°
2026-04-29 06:05 10.31568 123.98117 37 ft 0 kts 275°
2026-04-29 06:06 10.31556 123.98094 36 ft 6 kts 234°
2026-04-29 06:06 10.31546 123.98062 37 ft 3 kts 288°
2026-04-29 06:06 10.31559 123.98048 37 ft 2 kts 318°
2026-04-29 06:06 10.31570 123.98039 37 ft 2 kts 318°
2026-04-29 06:07 10.31576 123.98032 37 ft 2 kts 315°
2026-04-29 06:07 10.31586 123.98022 37 ft 2 kts 315°
2026-04-29 06:07 10.31593 123.98015 37 ft 2 kts 315°
2026-04-29 06:07 10.31598 123.98010 37 ft 0 kts 315°